EN

Hourly Weather Ladenkovo

Today, 4 August, Wednesday

Time Temperature Precipitation Wind Pressure Humidity
00:00 +12°C° 0 mm 2 mps 743 mmHg 90%
01:00 +12°C° 0 mm 2 mps 744 mmHg 91%
02:00 +12°C° 0 mm 2 mps 744 mmHg 92%
03:00 +12°C° 0 mm 2 mps 744 mmHg 92%
04:00 +12°C° 0 mm 2 mps 745 mmHg 91%
05:00 +12°C° 0 mm 2 mps 745 mmHg 91%
06:00 +14°C° 0 mm 2 mps 745 mmHg 80%
07:00 +16°C° 0 mm 2 mps 746 mmHg 69%
08:00 +18°C° 0 mm 2 mps 746 mmHg 58%
09:00 +18°C° 0 mm 2 mps 746 mmHg 55%
10:00 +19°C° 0 mm 2 mps 746 mmHg 53%
11:00 +20°C° 0 mm 3 mps 747 mmHg 50%
12:00 +20°C° 0 mm 3 mps 747 mmHg 47%
13:00 +21°C° 0 mm 3 mps 746 mmHg 43%
14:00 +22°C° 0 mm 3 mps 746 mmHg 39%
15:00 +21°C° 0 mm 2 mps 747 mmHg 45%
16:00 +20°C° 0 mm 2 mps 747 mmHg 50%
17:00 +20°C° 0 mm 1 mps 747 mmHg 55%
18:00 +19°C° 0 mm 1 mps 747 mmHg 57%
19:00 +18°C° 0 mm 1 mps 747 mmHg 59%
20:00 +15°C° 0 mm 0 mps 747 mmHg 60%
21:00 +15°C° 0 mm 0 mps 747 mmHg 61%
22:00 +15°C° 0 mm 0 mps 748 mmHg 61%
23:00 +14°C° 0 mm 0 mps 748 mmHg 62%

Tomorrow, 5 August, Thursday

Time Temperature Precipitation Wind Pressure Humidity
00:00 +14°C° 0 mm 0 mps 748 mmHg 62%
01:00 +14°C° 0 mm 0 mps 748 mmHg 62%
02:00 +14°C° 0 mm 0 mps 748 mmHg 62%
03:00 +15°C° 0 mm 1 mps 748 mmHg 64%
04:00 +15°C° 0 mm 1 mps 748 mmHg 65%
05:00 +14°C° 0 mm 1 mps 748 mmHg 67%
06:00 +15°C° 0 mm 1 mps 748 mmHg 66%
07:00 +16°C° 0 mm 1 mps 748 mmHg 65%
08:00 +16°C° 0 mm 1 mps 748 mmHg 64%
09:00 +18°C° 0.1 mm 1 mps 748 mmHg 61%
10:00 +18°C° 0.1 mm 2 mps 748 mmHg 59%
11:00 +19°C° 0.1 mm 2 mps 748 mmHg 57%
12:00 +18°C° 0.2 mm 2 mps 748 mmHg 64%
13:00 +18°C° 0.2 mm 2 mps 748 mmHg 71%
14:00 +18°C° 0.2 mm 1 mps 748 mmHg 78%
15:00 +16°C° 1.2 mm 1 mps 748 mmHg 84%
16:00 +15°C° 1.2 mm 1 mps 748 mmHg 91%
17:00 +14°C° 1.2 mm 1 mps 747 mmHg 97%
18:00 +14°C° 0.3 mm 1 mps 747 mmHg 97%
19:00 +14°C° 0.3 mm 1 mps 747 mmHg 98%
20:00 +14°C° 0.3 mm 1 mps 747 mmHg 98%
21:00 +14°C° 0.9 mm 2 mps 747 mmHg 98%
22:00 +14°C° 0.9 mm 2 mps 747 mmHg 98%
23:00 +14°C° 0.9 mm 2 mps 746 mmHg 99%

Day after tomorrow, 6 August, Friday

Time Temperature Precipitation Wind Pressure Humidity
00:00 +14°C° 1.1 mm 2 mps 746 mmHg 98%
01:00 +14°C° 1.1 mm 2 mps 746 mmHg 98%
02:00 +14°C° 1.1 mm 2 mps 746 mmHg 98%
03:00 +13°C° 0.2 mm 2 mps 746 mmHg 98%
04:00 +12°C° 0.2 mm 3 mps 746 mmHg 98%
05:00 +12°C° 0.2 mm 3 mps 746 mmHg 98%
06:00 +12°C° 0 mm 3 mps 746 mmHg 97%
07:00 +12°C° 0 mm 3 mps 746 mmHg 96%
08:00 +13°C° 0 mm 3 mps 746 mmHg 95%
09:00 +14°C° 0 mm 4 mps 746 mmHg 88%
10:00 +15°C° 0 mm 4 mps 746 mmHg 80%
11:00 +17°C° 0 mm 4 mps 746 mmHg 73%
12:00 +17°C° 0 mm 4 mps 746 mmHg 69%
13:00 +18°C° 0 mm 4 mps 746 mmHg 66%
14:00 +18°C° 0 mm 4 mps 745 mmHg 63%
15:00 +18°C° 0 mm 4 mps 745 mmHg 66%
16:00 +17°C° 0 mm 4 mps 746 mmHg 70%
17:00 +16°C° 0 mm 3 mps 746 mmHg 73%
18:00 +16°C° 0 mm 3 mps 746 mmHg 77%
19:00 +14°C° 0 mm 3 mps 745 mmHg 80%
20:00 +13°C° 0 mm 3 mps 745 mmHg 84%
21:00 +13°C° 0 mm 3 mps 745 mmHg 87%
22:00 +12°C° 0 mm 3 mps 745 mmHg 90%
23:00 +12°C° 0 mm 3 mps 745 mmHg 93%

7 August, Saturday

Time Temperature Precipitation Wind Pressure Humidity
00:00 +12°C° 0.1 mm 3 mps 745 mmHg 94%
01:00 +13°C° 0.1 mm 3 mps 745 mmHg 95%
02:00 +13°C° 0.1 mm 3 mps 745 mmHg 96%
03:00 +14°C° 1.2 mm 3 mps 745 mmHg 97%
04:00 +14°C° 1.2 mm 4 mps 745 mmHg 97%
05:00 +14°C° 1.2 mm 4 mps 745 mmHg 98%
06:00 +14°C° 0.5 mm 4 mps 745 mmHg 98%
07:00 +14°C° 0.5 mm 4 mps 745 mmHg 98%
08:00 +14°C° 0.5 mm 4 mps 745 mmHg 98%
09:00 +14°C° 0.2 mm 4 mps 745 mmHg 98%
10:00 +14°C° 0.2 mm 4 mps 745 mmHg 97%
11:00 +15°C° 0.2 mm 4 mps 745 mmHg 97%
12:00 +15°C° 0.8 mm 4 mps 745 mmHg 97%
13:00 +14°C° 0.8 mm 4 mps 745 mmHg 98%
14:00 +14°C° 0.8 mm 4 mps 745 mmHg 98%
15:00 +15°C° 0.2 mm 4 mps 745 mmHg 98%
16:00 +15°C° 0.2 mm 4 mps 745 mmHg 98%
17:00 +15°C° 0.2 mm 4 mps 745 mmHg 97%
18:00 +15°C° 0.7 mm 4 mps 745 mmHg 98%
19:00 +15°C° 0.7 mm 4 mps 745 mmHg 98%
20:00 +17°C° 0.7 mm 4 mps 745 mmHg 98%
21:00 +17°C° 1 mm 4 mps 745 mmHg 98%
22:00 +17°C° 1 mm 4 mps 744 mmHg 98%
23:00 +17°C° 1 mm 4 mps 744 mmHg 98%

8 August, Sunday

Time Temperature Precipitation Wind Pressure Humidity
00:00 +17°C° 0.3 mm 4 mps 744 mmHg 98%
01:00 +17°C° 0.3 mm 4 mps 744 mmHg 98%
02:00 +17°C° 0.3 mm 3 mps 744 mmHg 98%
03:00 +17°C° 0.6 mm 3 mps 744 mmHg 98%
04:00 +16°C° 0.6 mm 3 mps 744 mmHg 98%
05:00 +16°C° 0.6 mm 3 mps 744 mmHg 99%
06:00 +17°C° 0.1 mm 3 mps 744 mmHg 98%
07:00 +17°C° 0.1 mm 2 mps 744 mmHg 97%
08:00 +17°C° 0.1 mm 2 mps 744 mmHg 96%
09:00 +18°C° 0.1 mm 2 mps 744 mmHg 93%
10:00 +19°C° 0.1 mm 2 mps 744 mmHg 90%
11:00 +20°C° 0.1 mm 2 mps 744 mmHg 88%
12:00 +21°C° 0 mm 2 mps 744 mmHg 84%
13:00 +21°C° 0 mm 2 mps 744 mmHg 80%
14:00 +23°C° 0 mm 2 mps 744 mmHg 76%
15:00 +21°C° 0.5 mm 2 mps 744 mmHg 82%
16:00 +20°C° 0.5 mm 2 mps 745 mmHg 89%
17:00 +19°C° 0.5 mm 2 mps 745 mmHg 95%
18:00 +19°C° 0.4 mm 2 mps 745 mmHg 96%
19:00 +18°C° 0.4 mm 2 mps 745 mmHg 98%
20:00 +18°C° 0.4 mm 2 mps 745 mmHg 99%
21:00 +19°C° 0.4 mm 1 mps 745 mmHg 99%
22:00 +19°C° 0.4 mm 1 mps 745 mmHg 99%
23:00 +19°C° 0.4 mm 1 mps 746 mmHg 99%

9 August, Monday

Time Temperature Precipitation Wind Pressure Humidity
00:00 +19°C° 0.6 mm 1 mps 746 mmHg 98%
01:00 +18°C° 0.6 mm 1 mps 746 mmHg 98%
02:00 +18°C° 0.6 mm 1 mps 746 mmHg 98%
03:00 +18°C° 0.3 mm 1 mps 746 mmHg 98%
04:00 +18°C° 0.3 mm 1 mps 746 mmHg 98%
05:00 +18°C° 0.3 mm 1 mps 746 mmHg 98%
06:00 +18°C° 0.1 mm 1 mps 746 mmHg 97%
07:00 +18°C° 0.1 mm 1 mps 747 mmHg 96%
08:00 +18°C° 0.1 mm 1 mps 747 mmHg 95%
09:00 +19°C° 0 mm 1 mps 747 mmHg 92%
10:00 +19°C° 0 mm 1 mps 747 mmHg 89%
11:00 +20°C° 0 mm 1 mps 747 mmHg 86%
12:00 +20°C° 0 mm 2 mps 748 mmHg 84%
13:00 +20°C° 0 mm 2 mps 748 mmHg 81%
14:00 +21°C° 0 mm 2 mps 748 mmHg 79%
15:00 +21°C° 0 mm 2 mps 748 mmHg 79%
16:00 +21°C° 0 mm 2 mps 748 mmHg 79%
17:00 +21°C° 0 mm 2 mps 748 mmHg 79%
18:00 +20°C° 0 mm 2 mps 748 mmHg 84%
19:00 +20°C° 0 mm 1 mps 748 mmHg 90%
20:00 +19°C° 0 mm 1 mps 748 mmHg 95%
21:00 +18°C° 0 mm 1 mps 748 mmHg 96%
22:00 +18°C° 0 mm 1 mps 748 mmHg 97%
23:00 +18°C° 0 mm 1 mps 748 mmHg 97%
Show more